Regional Weather Roundup
Issued by NWS

Home | Current Version | Previous Version | Graphics & Text | Print | Product List | Glossary On
Versions: 1 2 3 4 5 6 7 8 9 10 11 12 13 14 15 16 17 18 19 20 21 22 23 24 25 26 27 28 29 30 31 32 33 34 35 36 37 38 39 40 41 42 43 44 45 46 47 48 49 50
685
ASUS43 KIND 130409
RWRIN

WEATHER ROUNDUP FOR INDIANA
NATIONAL WEATHER SERVICE INDIANAPOLIS IN
1100 PM EST FRI FEB 12 2016

NOTE: "FAIR" INDICATES FEW OR NO CLOUDS BELOW 12,000 FEET WITH NO
SIGNIFICANT WEATHER AND/OR OBSTRUCTIONS TO VISIBILITY.

* - STATION DOES NOT REPORT WEATHER SUCH AS PRECIPITATION OR FOG.

+ - STATION NOT QUALITY CONTROLLED BY THE NATIONAL WEATHER SERVICE.
    USE DATA WITH CAUTION...ESPECIALLY DEWPOINT AND RELATIVE
    HUMIDITY OBSERVATIONS.

INZ001>003-010>013-019-020-130500-
NORTHWEST INDIANA

CITY           SKY/WX    TMP DP  RH WIND       PRES   REMARKS
GARY /AIRPORT/ PTCLDY    14  -6  40 NW21G31   30.41R WCI  -3
KNOX *+        MOCLDY    14   7  73 NW17G24   30.34R WCI  -3
LA PORTE +     LGT SNOW  15  11  82 NW14G24   30.33R WCI   1
MICHIGAN CITY+ LGT SNOW  14  10  85 NW16G28   30.35R VSB 3/4 WCI  -2
MONTICELLO +   CLEAR     15  -4  43 NW18      30.34R WCI  -2
RENSSELAER +   CLEAR     16  -8  35 NW13G20   30.38R WCI   2
VALPARAISO     CLOUDY    14   2  58 NW16G24   30.35R WCI  -2

$$

LMZ046-743>745-130500-
SOUTHERN LAKE MICHIGAN

STATION/POSITION TIME  TEMP    WIND        PRES    WAVE
                       AIR SEA DIR/SP/G            HT
                 (UTC) (F)     (DEG/KT/KT) (MB)    (FT)
BURNS HARBOR     0304   16     330/ 21     1027.8R
MICHIGAN CITY    0300   16     290/ 28/ 36   N/A

$$

INZ004-005-014>016-021>024-130500-
NORTH CENTRAL INDIANA

CITY           SKY/WX    TMP DP  RH WIND       PRES   REMARKS
GOSHEN         CLOUDY    13   7  77 NW17      30.27R WCI  -4
LOGANSPORT +   PTCLDY    16   1  53 NW17G25   30.33R WCI   0
PERU/GRISSOM   PTCLDY    15   5  63 NW14G25   30.29R WCI   1
ROCHESTER +    PTCLDY    18   5  57 NW17G23   30.31R WCI   2
SOUTH BEND     LGT SNOW  13   8  81 N20       30.31R VSB 1   WCI  -5
WARSAW +       LGT SNOW  14  10  85 NW13G20   30.28R WCI   0

$$

INZ006>009-017-018-025>027-130500-
NORTHEAST INDIANA

CITY           SKY/WX    TMP DP  RH WIND       PRES   REMARKS
ANGOLA *+      MOCLDY    10   3  72 N9        30.21R WCI  -2
AUBURN +       LGT SNOW  16  10  79 NW10G18   30.25R WCI   3
FORT WAYNE     PTCLDY    14   6  70 NW13      30.26R WCI   0
HUNTINGTON +   LGT SNOW  14   7  73 NW12      30.28R WCI   0

$$

INZ028-029-035-036-043>045-051>053-130500-
WEST CENTRAL INDIANA

CITY           SKY/WX    TMP DP  RH WIND       PRES   REMARKS
CRAWFORDSVL +  CLEAR     15   1  54 NW16      30.35R WCI  -1
GREENCASTLE +  PTCLDY    19   0  42 NW10G16   30.36R WCI   8
LAFAYETTE      CLEAR     15   1  53 NW15G23   30.37R WCI   0
TERRE HAUTE    CLEAR     19   6  57 NW21G30   30.40R WCI   3

$$

INZ030>032-037>040-046>048-054>057-064-065-130500-
CENTRAL INDIANA

CITY           SKY/WX    TMP DP  RH WIND       PRES   REMARKS
FISHERS *+     MOCLDY    16   9  73 NW15      30.32R WCI   1
FRANKFORT +    PTCLDY    17  -5  37 NW20      30.33R WCI   0
GREENWOOD *+   PTCLDY    19   9  63 NW13G23   30.32R WCI   7
INDIANAPOLIS   PTCLDY    18   5  57 NW14      30.32R WCI   4
-EAGLE CREEK   CLEAR     18   5  57 NW14      30.32R WCI   4
KOKOMO *+      MOCLDY    16   7  67 NW16G22   30.30R WCI   0
MARION +       PTCLDY    15   4  61 NW12      30.29R WCI   1
MT COMFORT *+  MOCLDY    18   7  62 NW16      30.31R WCI   3
SHELBYVILLE    CLEAR     19   6  57 NW15      30.30R WCI   5
ZIONSVILLE +   PTCLDY    16   5  60 NW10G21   30.31R WCI   4

$$

INZ033-034-041-042-049-050-058-059-130500-
EAST CENTRAL INDIANA

CITY           SKY/WX    TMP DP  RH WIND       PRES   REMARKS
MUNCIE         PTCLDY    16   4  59 NW14      30.27R WCI   2

$$

INZ060-061-067>069-081>083-085>088-130500-
SOUTHWEST INDIANA

CITY           SKY/WX    TMP DP  RH WIND       PRES   REMARKS
EVANSVILLE     CLEAR     26  13  57 NW9       30.42R WCI  17
HUNTINGBURG *+ CLOUDY    25  12  58 NW15G22   30.38R WCI  12
WASHINGTON +   PTCLDY    22   8  54 NW14G21   30.39R WCI   9

$$

INZ062-063-066-070>080-084-089>092-130500-
SOUTH CENTRAL AND SOUTHEAST INDIANA

CITY           SKY/WX    TMP DP  RH WIND       PRES   REMARKS
BEDFORD +      PTCLDY    21   7  53 NW14G23   30.34R WCI   8
BLOOMINGTON    CLEAR     20   5  52 NW10G18   30.33R WCI   9
MADISON *+     MOCLDY    25  10  54 NW12G20   30.31R WCI  14
NORTH VERNON + CLOUDY    23   9  54 NW17G26   30.31R WCI   9
SEYMOUR +      FLURRIES  25  14  63 N10G18    30.33R WCI  15

$$





USA.gov is the U.S. government's official web portal to all federal, state and local government web resources and services.